Tracking 17150 objects as of 4-August-2015
HD Live streaming from Space Station

GLOBALSTAR M003

Track GLOBALSTAR M003 now!
10-day predictions
GLOBALSTAR M003 is classified as:


NORAD ID: 25165
Int'l Code: 1998-008D
Perigee: 1,630.9 km
Apogee: 1,639.5 km
Inclination: 52.0 °
Period: 118.8 minutes
Semi major axis: 8006 km
RCS: 2.2435 m2 (large)
Launch date: February 14, 1998
Source: Globalstar (GLOB)
Your satellite tracking list
Your tracking list is empty





NASA's NSSDC Master Catalog

Two Line Element Set (TLE):
1 25165U 98008D   15216.06626794 -.00000177  00000-0 -93299-3 0  9991
2 25165 051.9813 074.2948 0005398 226.2316 292.0354 12.11893044796188

Source of the keplerian elements: AFSPC

N2YO: 361